DW9565 Weather Reports


Display with metric or nautical units.
time (UTC)temp
F
wind
direction
speed
MPH
gust
MPH
rain 1hr
in
rain 24hr
in
rain mn
in
humidity
%
barometer
mb
20260902204537 76 203 10.0 17.0 0.00 0.00 0.00 36 1007.7
20260902203036 76 196 10.0 18.0 0.00 0.00 0.00 37 1007.7
20260902201538 75 197 9.0 14.0 0.00 0.00 0.00 39 1008.1
20260902200034 74 185 13.0 18.0 0.00 0.00 0.00 41 1008.2
20260902194532 74 168 11.0 17.0 0.00 0.00 0.00 41 1008.3
20260902193029 73 180 12.0 18.0 0.00 0.00 0.00 43 1008.3
20260902191532 74 200 12.0 18.0 0.00 0.00 0.00 40 1008.4
20260902190028 74 195 12.0 22.0 0.00 0.00 0.00 40 1008.5
20260902184526 74 194 13.0 17.0 0.00 0.00 0.00 40 1008.5
20260902183025 75 273 11.0 16.0 0.00 0.00 0.00 38 1008.8
20260902181522 74 194 12.0 19.0 0.00 0.00 0.00 41 1008.9
20260902180021 73 219 11.0 16.0 0.00 0.00 0.00 41 1008.9
20260902174521 73 212 9.0 15.0 0.00 0.00 0.00 39 1009.0
20260902173030 72 227 3.0 9.0 0.00 0.00 0.00 38 1009.0
20260902171519 73 230 6.0 9.0 0.00 0.00 0.00 36 1008.9
20260902170020 73 241 5.0 8.0 0.00 0.00 0.00 36 1008.8
20260902164515 72 196 6.0 12.0 0.00 0.00 0.00 39 1008.8
20260902163014 72 205 7.0 11.0 0.00 0.00 0.00 39 1008.9
20260902161531 71 207 6.0 10.0 0.00 0.00 0.00 39 1008.9
20260902160011 70 194 7.0 12.0 0.00 0.00 0.00 44 1009.0
20260902154511 70 191 9.0 12.0 0.00 0.00 0.00 43 1009.1
20260902153119 69 189 10.0 18.0 0.00 0.00 0.00 45 1009.3
20260902151510 66 184 8.0 12.0 0.00 0.00 0.00 48 1009.4
20260902150008 66 175 9.0 13.0 0.00 0.00 0.00 47 1009.7
20260902144510 66 183 9.0 12.0 0.00 0.00 0.00 47 1009.8
20260902143005 65 178 12.0 18.0 0.00 0.00 0.00 48 1009.9
20260902141505 63 213 6.0 8.0 0.00 0.00 0.00 54 1009.7
20260902140006 60 236 3.0 8.0 0.00 0.00 0.00 58 1009.6
20260902134505 61 220 5.0 6.0 0.00 0.00 0.00 54 1009.6
20260902133003 60 250 4.0 7.0 0.00 0.00 0.00 55 1009.3
20260902131501 61 232 3.0 7.0 0.00 0.00 0.00 52 1009.4
20260902130000 61 217 6.0 9.0 0.00 0.00 0.00 51 1009.5
20260902124608 60 240 4.0 8.0 0.00 0.00 0.00 53 1009.6
20260902123101 59 236 5.0 7.0 0.00 0.00 0.00 54 1009.7
20260902121611 59 239 5.0 10.0 0.00 0.00 0.00 55 1010.0
20260902120106 60 253 5.0 10.0 0.00 0.00 0.00 54 1010.0
20260902114616 59 227 5.0 9.0 0.00 0.00 0.00 54 1010.1
20260902113100 56 220 5.0 8.0 0.00 0.00 0.00 61 1010.2
20260902111600 57 218 2.0 5.0 0.00 0.00 0.00 57 1010.2
20260902110057 58 48 3.0 10.0 0.00 0.00 0.00 55 1009.9
20260902104548 58 37 3.0 4.0 0.00 0.00 0.00 55 1009.8
20260902103107 58 355 3.0 6.0 0.00 0.00 0.00 54 1010.0
20260902101546 59 51 3.0 5.0 0.00 0.00 0.00 53 1009.9
20260902100046 59 348 1.0 4.0 0.00 0.00 0.00 52 1010.1
20260902094545 60 348 3.0 5.0 0.00 0.00 0.00 52 1010.0
20260902093039 61 54 5.0 11.0 0.00 0.00 0.00 49 1010.2
20260902091547 63 48 4.0 9.0 0.00 0.00 0.00 46 1010.2
20260902090048 64 299 1.0 8.0 0.00 0.00 0.00 45 1010.4
20260902084536 65 299 3.0 9.0 0.00 0.00 0.00 44 1010.5
20260902083033 63 350 5.0 9.0 0.00 0.00 0.00 46 1010.5
20260902081540 63 53 6.0 10.0 0.00 0.00 0.00 47 1010.3
20260902080030 65 355 6.0 9.0 0.00 0.00 0.00 43 1010.3
20260902074539 70 146 8.0 13.0 0.00 0.00 0.00 39 1010.4
20260902073027 71 140 10.0 14.0 0.00 0.00 0.00 38 1010.5
20260902071525 71 138 11.0 18.0 0.00 0.00 0.00 36 1010.7
20260902070023 67 178 4.0 8.0 0.00 0.00 0.00 38 1010.7
20260902064530 69 202 7.0 16.0 0.00 0.00 0.00 37 1010.8
20260902063022 69 162 7.0 18.0 0.00 0.00 0.00 37 1010.9
20260902061534 68 153 10.0 14.0 0.00 0.00 0.00 37 1011.0
20260902060018 69 140 13.0 18.0 0.00 0.00 0.00 34 1011.2
20260902054525 70 122 15.0 22.0 0.00 0.00 0.00 34 1011.2
20260902053015 70 136 15.0 25.0 0.00 0.00 0.00 34 1011.2
20260902051509 70 132 16.0 25.0 0.00 0.00 0.00 35 1011.3
20260902050009 70 134 13.0 23.0 0.00 0.00 0.00 37 1011.4
20260902044508 70 126 14.0 19.0 0.00 0.00 0.00 38 1011.4
20260902043009 70 119 15.0 21.0 0.00 0.00 0.00 37 1011.4
20260902041510 71 128 16.0 20.0 0.00 0.00 0.00 36 1011.4
20260902040007 70 128 12.0 18.0 0.00 0.00 0.00 35 1011.5
20260902034515 70 127 10.0 15.0 0.00 0.00 0.00 33 1011.5
20260902033006 70 134 11.0 14.0 0.00 0.00 0.00 33 1011.6
20260902031505 70 131 10.0 16.0 0.00 0.00 0.00 32 1011.8
20260902030004 71 127 10.0 15.0 0.00 0.00 0.00 31 1011.7
20260902024613 69 148 10.0 14.0 0.00 0.00 0.00 35 1011.6
20260902023001 71 146 8.0 13.0 0.00 0.00 0.00 33 1011.6
20260902021501 72 134 11.0 16.0 0.00 0.00 0.00 31 1011.6
20260902020004 71 140 10.0 13.0 0.00 0.00 0.00 34 1011.7
20260902014600 71 126 8.0 10.0 0.00 0.00 0.00 36 1011.7
20260902013058 73 123 8.0 12.0 0.00 0.00 0.00 33 1011.5
20260902011558 75 124 4.0 9.0 0.00 0.00 0.00 33 1011.6
20260902010059 76 133 3.0 9.0 0.00 0.00 0.00 29 1011.7
20260902004557 77 135 8.0 14.0 0.00 0.00 0.00 27 1011.6
20260902003056 77 114 11.0 15.0 0.00 0.00 0.00 26 1011.7
20260902001601 77 130 12.0 16.0 0.00 0.00 0.00 26 1011.7
20260902000055 78 140 11.0 16.0 0.00 0.00 0.00 26 1011.8
20260901234609 78 136 13.0 18.0 0.00 0.00 0.00 27 1011.7
20260901233101 79 119 14.0 20.0 0.00 0.00 0.00 26 1011.7
20260901231552 79 111 10.0 16.0 0.00 0.00 0.00 25 1011.9
20260901230050 79 133 12.0 18.0 0.00 0.00 0.00 25 1012.1
20260901224549 79 113 11.0 16.0 0.00 0.00 0.00 26 1012.3
20260901223049 80 132 10.0 15.0 0.00 0.00 0.00 25 1012.4
20260901221544 79 150 8.0 16.0 0.00 0.00 0.00 25 1012.6
20260901220107 79 134 10.0 15.0 0.00 0.00 0.00 26 1012.7
20260901214542 78 172 6.0 12.0 0.00 0.00 0.00 28 1012.8
20260901213041 78 154 10.0 18.0 0.00 0.00 0.00 27 1013.1
20260901211541 79 130 13.0 19.0 0.00 0.00 0.00 28 1013.1
20260901210044 78 130 11.0 21.0 0.00 0.00 0.00 27 1013.3